| time (UTC) | temp F | wind direction | speed MPH | gust MPH | rain 1hr in | rain 24hr in | rain mn in | humidity % | barometer mb |
| 20260502163404 | 57 | 258 | 6.0 | 8.0 | 0.00 | 0.00 | 0.00 | 35 | 1018.0 |
| 20260502162902 | 57 | 245 | 3.0 | 3.0 | 0.00 | 0.00 | 0.00 | 36 | 1018.2 |
| 20260502162358 | 56 | 310 | 5.0 | 9.0 | 0.00 | 0.00 | 0.00 | 37 | 1018.3 |
| 20260502161855 | 57 | 308 | 7.0 | 11.0 | 0.00 | 0.00 | 0.00 | 37 | 1018.3 |
| 20260502161351 | 55 | 200 | 2.0 | 5.0 | 0.00 | 0.00 | 0.00 | 37 | 1018.4 |
| 20260502160849 | 56 | 311 | 6.0 | 10.0 | 0.00 | 0.00 | 0.00 | 37 | 1018.4 |
| 20260502160348 | 55 | 307 | 4.0 | 6.0 | 0.00 | 0.00 | 0.00 | 38 | 1018.3 |
| 20260502152328 | 55 | 265 | 3.0 | 5.0 | 0.00 | 0.00 | 0.00 | 41 | 1018.5 |
| 20260502151826 | 54 | 258 | 6.0 | 10.0 | 0.00 | 0.00 | 0.00 | 43 | 1018.8 |
| 20260502151322 | 54 | 258 | 3.0 | 6.0 | 0.00 | 0.00 | 0.00 | 42 | 1018.9 |
| 20260502150820 | 53 | 205 | 2.0 | 7.0 | 0.00 | 0.00 | 0.00 | 45 | 1018.7 |
| 20260502150316 | 52 | 233 | 3.0 | 6.0 | 0.00 | 0.00 | 0.00 | 47 | 1019.2 |
| 20260502130705 | 43 | 242 | 2.0 | 5.0 | 0.00 | 0.00 | 0.00 | 61 | 1019.5 |
| 20260502130202 | 43 | 228 | 2.0 | 3.0 | 0.00 | 0.00 | 0.00 | 61 | 1019.6 |
| 20260502123648 | 41 | 195 | 1.0 | 3.0 | 0.00 | 0.00 | 0.00 | 65 | 1019.5 |
| 20260502123145 | 41 | 190 | 1.0 | 2.0 | 0.00 | 0.00 | 0.00 | 66 | 1019.6 |
| 20260502122641 | 40 | 187 | 0.0 | 0.0 | 0.00 | 0.00 | 0.00 | 66 | 1019.4 |
| 20260502122138 | 40 | 181 | 0.0 | 3.0 | 0.00 | 0.00 | 0.00 | 66 | 1019.4 |
| 20260502121636 | 40 | 202 | 1.0 | 1.0 | 0.00 | 0.00 | 0.00 | 66 | 1019.5 |
| 20260502121133 | 39 | 189 | 0.0 | 0.0 | 0.00 | 0.00 | 0.00 | 69 | 1019.5 |
| 20260502120630 | 39 | 193 | 1.0 | 1.0 | 0.00 | 0.00 | 0.00 | 68 | 1019.3 |
| 20260502120127 | 39 | 187 | 0.0 | 0.0 | 0.00 | 0.00 | 0.00 | 69 | 1019.2 |
| 20260502115624 | 38 | 236 | 3.0 | 3.0 | 0.00 | 0.00 | 0.00 | 70 | 1019.2 |
| 20260502115120 | 38 | 196 | 2.0 | 3.0 | 0.00 | 0.00 | 0.00 | 71 | 1019.2 |
| 20260502114616 | 37 | 222 | 2.0 | 3.0 | 0.00 | 0.00 | 0.00 | 71 | 1019.2 |
| 20260502114114 | 37 | 221 | 1.0 | 2.0 | 0.00 | 0.00 | 0.00 | 71 | 1019.1 |
| 20260502113611 | 37 | 202 | 1.0 | 5.0 | 0.00 | 0.00 | 0.00 | 72 | 1019.0 |
| 20260502113110 | 36 | 203 | 1.0 | 2.0 | 0.00 | 0.00 | 0.00 | 73 | 1019.1 |
| 20260502112607 | 36 | 196 | 0.0 | 0.0 | 0.00 | 0.00 | 0.00 | 75 | 1018.9 |
| 20260502112104 | 36 | 200 | 0.0 | 0.0 | 0.00 | 0.00 | 0.00 | 74 | 1018.8 |
| 20260502111602 | 36 | 202 | 0.0 | 1.0 | 0.00 | 0.00 | 0.00 | 75 | 1019.1 |
| 20260502111059 | 36 | 204 | 1.0 | 2.0 | 0.00 | 0.00 | 0.00 | 74 | 1019.2 |
| 20260502110556 | 36 | 203 | 1.0 | 1.0 | 0.00 | 0.00 | 0.00 | 74 | 1018.8 |
| 20260502110054 | 37 | 203 | 1.0 | 1.0 | 0.00 | 0.00 | 0.00 | 73 | 1018.8 |
| 20260502105551 | 36 | 204 | 1.0 | 2.0 | 0.00 | 0.00 | 0.00 | 74 | 1019.0 |
| 20260502105048 | 36 | 210 | 2.0 | 2.0 | 0.00 | 0.00 | 0.00 | 74 | 1019.0 |
| 20260502104545 | 37 | 210 | 3.0 | 3.0 | 0.00 | 0.00 | 0.00 | 73 | 1018.9 |
| 20260502104043 | 37 | 212 | 1.0 | 2.0 | 0.00 | 0.00 | 0.00 | 73 | 1019.0 |
| 20260502103540 | 37 | 213 | 2.0 | 2.0 | 0.00 | 0.00 | 0.00 | 72 | 1019.0 |
| 20260502103038 | 37 | 205 | 1.0 | 3.0 | 0.00 | 0.00 | 0.00 | 72 | 1019.0 |
| 20260502102534 | 37 | 206 | 1.0 | 2.0 | 0.00 | 0.00 | 0.00 | 72 | 1019.1 |
| 20260502102032 | 37 | 211 | 1.0 | 2.0 | 0.00 | 0.00 | 0.00 | 72 | 1019.0 |
| 20260502101529 | 37 | 210 | 1.0 | 2.0 | 0.00 | 0.00 | 0.00 | 72 | 1019.0 |
| 20260502101028 | 37 | 205 | 1.0 | 2.0 | 0.00 | 0.00 | 0.00 | 71 | 1019.0 |
| 20260502100526 | 37 | 213 | 2.0 | 2.0 | 0.00 | 0.00 | 0.00 | 71 | 1018.8 |
| 20260502091500 | 37 | 204 | 1.0 | 1.0 | 0.00 | 0.00 | 0.00 | 72 | 1018.9 |
| 20260502090958 | 37 | 205 | 1.0 | 2.0 | 0.00 | 0.00 | 0.00 | 71 | 1018.8 |
| 20260502090454 | 38 | 202 | 2.0 | 2.0 | 0.00 | 0.00 | 0.00 | 70 | 1019.0 |
| 20260502071349 | 40 | 215 | 2.0 | 2.0 | 0.00 | 0.00 | 0.00 | 65 | 1019.0 |
| 20260502070847 | 40 | 212 | 1.0 | 1.0 | 0.00 | 0.00 | 0.00 | 65 | 1019.0 |
| 20260502070344 | 40 | 207 | 1.0 | 2.0 | 0.00 | 0.00 | 0.00 | 65 | 1019.1 |
| 20260502065844 | 40 | 215 | 2.0 | 2.0 | 0.00 | 0.00 | 0.00 | 65 | 1019.0 |
| 20260502065341 | 40 | 202 | 0.0 | 1.0 | 0.00 | 0.00 | 0.00 | 66 | 1019.1 |
| 20260502064839 | 40 | 204 | 0.0 | 1.0 | 0.00 | 0.00 | 0.00 | 66 | 1019.4 |
| 20260502064337 | 40 | 221 | 0.0 | 1.0 | 0.00 | 0.00 | 0.00 | 67 | 1019.2 |
| 20260502063833 | 40 | 201 | 1.0 | 1.0 | 0.00 | 0.00 | 0.00 | 66 | 1019.1 |
| 20260502063331 | 40 | 200 | 1.0 | 1.0 | 0.00 | 0.00 | 0.00 | 66 | 1019.2 |
| 20260502062828 | 41 | 198 | 0.0 | 1.0 | 0.00 | 0.00 | 0.00 | 65 | 1019.3 |
| 20260502062326 | 41 | 201 | 1.0 | 1.0 | 0.00 | 0.00 | 0.00 | 63 | 1019.3 |
| 20260502061825 | 41 | 203 | 0.0 | 0.0 | 0.00 | 0.00 | 0.00 | 63 | 1019.4 |
| 20260502061322 | 41 | 202 | 0.0 | 0.0 | 0.00 | 0.00 | 0.00 | 61 | 1019.1 |
| 20260502060817 | 41 | 205 | 0.0 | 0.0 | 0.00 | 0.00 | 0.00 | 61 | 1019.3 |
| 20260502060312 | 41 | 206 | 1.0 | 1.0 | 0.00 | 0.00 | 0.00 | 61 | 1019.2 |
| 20260502055811 | 41 | 204 | 0.0 | 1.0 | 0.00 | 0.00 | 0.00 | 59 | 1019.2 |
| 20260502055308 | 41 | 220 | 1.0 | 2.0 | 0.00 | 0.00 | 0.00 | 59 | 1019.3 |
| 20260502054808 | 42 | 207 | 1.0 | 2.0 | 0.00 | 0.00 | 0.00 | 58 | 1019.3 |
| 20260502054305 | 42 | 205 | 0.0 | 1.0 | 0.00 | 0.00 | 0.00 | 59 | 1019.4 |
| 20260502053802 | 42 | 207 | 1.0 | 1.0 | 0.00 | 0.00 | 0.00 | 57 | 1019.3 |
| 20260502053259 | 42 | 205 | 1.0 | 1.0 | 0.00 | 0.00 | 0.00 | 57 | 1019.4 |
| 20260502052757 | 42 | 207 | 1.0 | 1.0 | 0.00 | 0.00 | 0.00 | 57 | 1019.0 |
| 20260502052255 | 42 | 208 | 1.0 | 2.0 | 0.00 | 0.00 | 0.00 | 57 | 1019.2 |
| 20260502051752 | 42 | 215 | 1.0 | 2.0 | 0.00 | 0.00 | 0.00 | 56 | 1019.3 |
| 20260502051251 | 43 | 207 | 1.0 | 2.0 | 0.00 | 0.00 | 0.00 | 56 | 1019.3 |
| 20260502050747 | 43 | 209 | 1.0 | 2.0 | 0.00 | 0.00 | 0.00 | 56 | 1019.1 |
| 20260502050243 | 43 | 221 | 1.0 | 2.0 | 0.00 | 0.00 | 0.00 | 55 | 1019.2 |
| 20260502045740 | 43 | 215 | 1.0 | 2.0 | 0.00 | 0.00 | 0.00 | 55 | 1019.1 |
| 20260502045237 | 43 | 223 | 1.0 | 2.0 | 0.00 | 0.00 | 0.00 | 55 | 1019.0 |
| 20260502044734 | 43 | 223 | 2.0 | 2.0 | 0.00 | 0.00 | 0.00 | 54 | 1019.1 |
| 20260502044230 | 43 | 221 | 1.0 | 2.0 | 0.00 | 0.00 | 0.00 | 55 | 1019.2 |
| 20260502043728 | 43 | 210 | 1.0 | 2.0 | 0.00 | 0.00 | 0.00 | 54 | 1019.0 |
| 20260502043225 | 43 | 208 | 1.0 | 2.0 | 0.00 | 0.00 | 0.00 | 55 | 1019.2 |
| 20260502042724 | 43 | 206 | 1.0 | 1.0 | 0.00 | 0.00 | 0.00 | 55 | 1019.1 |
| 20260502042222 | 43 | 209 | 0.0 | 0.0 | 0.00 | 0.00 | 0.00 | 54 | 1019.0 |
| 20260502041719 | 43 | 204 | 0.0 | 0.0 | 0.00 | 0.00 | 0.00 | 54 | 1019.1 |
| 20260502041216 | 44 | 203 | 0.0 | 0.0 | 0.00 | 0.00 | 0.00 | 53 | 1019.1 |
| 20260502040713 | 44 | 203 | 1.0 | 1.0 | 0.00 | 0.00 | 0.00 | 52 | 1019.1 |
| 20260502040210 | 44 | 204 | 1.0 | 1.0 | 0.00 | 0.00 | 0.00 | 52 | 1019.2 |
| 20260502035706 | 44 | 206 | 1.0 | 2.0 | 0.00 | 0.00 | 0.00 | 51 | 1019.2 |
| 20260502035203 | 44 | 209 | 0.0 | 0.0 | 0.00 | 0.00 | 0.00 | 51 | 1019.2 |
| 20260502034701 | 44 | 203 | 0.0 | 0.0 | 0.00 | 0.00 | 0.00 | 50 | 1019.0 |
| 20260502034159 | 45 | 203 | 0.0 | 0.0 | 0.00 | 0.00 | 0.00 | 50 | 1019.2 |
| 20260502033657 | 45 | 203 | 0.0 | 1.0 | 0.00 | 0.00 | 0.00 | 48 | 1019.1 |
| 20260502033154 | 46 | 208 | 1.0 | 2.0 | 0.00 | 0.00 | 0.00 | 47 | 1019.3 |
| 20260502032650 | 46 | 216 | 1.0 | 1.0 | 0.00 | 0.00 | 0.00 | 47 | 1019.2 |
| 20260502032147 | 46 | 209 | 1.0 | 2.0 | 0.00 | 0.00 | 0.00 | 45 | 1019.1 |
| 20260502031644 | 46 | 209 | 1.0 | 1.0 | 0.00 | 0.00 | 0.00 | 45 | 1019.4 |
| 20260502031142 | 45 | 203 | 1.0 | 1.0 | 0.00 | 0.00 | 0.00 | 48 | 1019.2 |
| 20260502030641 | 46 | 210 | 2.0 | 2.0 | 0.00 | 0.00 | 0.00 | 47 | 1019.1 |
| 20260502030139 | 46 | 204 | 1.0 | 1.0 | 0.00 | 0.00 | 0.00 | 45 | 1019.2 |
| 20260502025635 | 46 | 216 | 1.0 | 2.0 | 0.00 | 0.00 | 0.00 | 43 | 1019.2 |
| 20260502025133 | 46 | 209 | 0.0 | 0.0 | 0.00 | 0.00 | 0.00 | 44 | 1019.1 |
| 20260502024631 | 46 | 204 | 0.0 | 0.0 | 0.00 | 0.00 | 0.00 | 43 | 1019.0 |
| 20260502024129 | 46 | 207 | 0.0 | 0.0 | 0.00 | 0.00 | 0.00 | 45 | 1019.1 |
| 20260502023627 | 46 | 203 | 0.0 | 0.0 | 0.00 | 0.00 | 0.00 | 45 | 1019.1 |
| 20260502023124 | 46 | 203 | 0.0 | 0.0 | 0.00 | 0.00 | 0.00 | 45 | 1019.0 |
| 20260502022620 | 47 | 203 | 0.0 | 0.0 | 0.00 | 0.00 | 0.00 | 43 | 1019.0 |
| 20260502022118 | 47 | 207 | 0.0 | 0.0 | 0.00 | 0.00 | 0.00 | 43 | 1019.0 |
| 20260502021615 | 47 | 203 | 0.0 | 0.0 | 0.00 | 0.00 | 0.00 | 44 | 1019.1 |
| 20260502021112 | 48 | 202 | 0.0 | 0.0 | 0.00 | 0.00 | 0.00 | 43 | 1019.0 |
| 20260502020610 | 48 | 202 | 0.0 | 0.0 | 0.00 | 0.00 | 0.00 | 42 | 1019.0 |
| 20260502020106 | 48 | 202 | 0.0 | 0.0 | 0.00 | 0.00 | 0.00 | 41 | 1019.0 |
| 20260502015604 | 48 | 203 | 0.0 | 0.0 | 0.00 | 0.00 | 0.00 | 41 | 1018.9 |
| 20260502015100 | 49 | 202 | 0.0 | 0.0 | 0.00 | 0.00 | 0.00 | 40 | 1018.9 |
| 20260502014557 | 49 | 201 | 0.0 | 0.0 | 0.00 | 0.00 | 0.00 | 39 | 1018.7 |
| 20260502014054 | 49 | 200 | 0.0 | 0.0 | 0.00 | 0.00 | 0.00 | 38 | 1018.6 |
| 20260502013549 | 50 | 200 | 0.0 | 1.0 | 0.00 | 0.00 | 0.00 | 37 | 1018.7 |
| 20260502013046 | 50 | 203 | 1.0 | 1.0 | 0.00 | 0.00 | 0.00 | 37 | 1018.7 |
| 20260502012543 | 50 | 225 | 1.0 | 1.0 | 0.00 | 0.00 | 0.00 | 36 | 1018.8 |
| 20260502012041 | 50 | 205 | 0.0 | 1.0 | 0.00 | 0.00 | 0.00 | 36 | 1018.7 |
| 20260502011538 | 51 | 227 | 1.0 | 1.0 | 0.00 | 0.00 | 0.00 | 36 | 1018.6 |
| 20260502011034 | 51 | 240 | 2.0 | 2.0 | 0.00 | 0.00 | 0.00 | 35 | 1018.6 |
| 20260502010532 | 51 | 255 | 2.0 | 3.0 | 0.00 | 0.00 | 0.00 | 34 | 1018.5 |
| 20260502010028 | 51 | 236 | 3.0 | 5.0 | 0.00 | 0.00 | 0.00 | 34 | 1018.7 |
| 20260502005526 | 52 | 239 | 2.0 | 6.0 | 0.00 | 0.00 | 0.00 | 33 | 1018.6 |
| 20260502005023 | 52 | 256 | 2.0 | 3.0 | 0.00 | 0.00 | 0.00 | 33 | 1018.7 |
| 20260502004519 | 52 | 234 | 2.0 | 5.0 | 0.00 | 0.00 | 0.00 | 33 | 1018.3 |
| 20260502004016 | 52 | 246 | 2.0 | 3.0 | 0.00 | 0.00 | 0.00 | 34 | 1018.6 |
| 20260502003514 | 52 | 246 | 2.0 | 3.0 | 0.00 | 0.00 | 0.00 | 33 | 1018.5 |
| 20260502003010 | 52 | 213 | 1.0 | 2.0 | 0.00 | 0.00 | 0.00 | 34 | 1018.5 |
| 20260502002507 | 52 | 219 | 1.0 | 2.0 | 0.00 | 0.00 | 0.00 | 34 | 1018.6 |
| 20260502002004 | 52 | 273 | 3.0 | 5.0 | 0.00 | 0.00 | 0.00 | 33 | 1018.6 |
| 20260502001501 | 52 | 330 | 3.0 | 3.0 | 0.00 | 0.00 | 0.00 | 34 | 1018.5 |
| 20260502000959 | 52 | 244 | 1.0 | 2.0 | 0.00 | 0.00 | 0.00 | 34 | 1018.4 |
| 20260502000457 | 51 | 228 | 2.0 | 5.0 | 0.00 | 0.00 | 0.00 | 34 | 1018.4 |
| 20260501235953 | 51 | 252 | 2.0 | 2.0 | 0.00 | 0.00 | 0.00 | 35 | 1018.6 |
| 20260501235449 | 51 | 281 | 2.0 | 3.0 | 0.00 | 0.00 | 0.00 | 36 | 1018.5 |
| 20260501234944 | 51 | 239 | 1.0 | 3.0 | 0.00 | 0.00 | 0.00 | 35 | 1018.6 |
| 20260501234441 | 51 | 319 | 2.0 | 3.0 | 0.00 | 0.00 | 0.00 | 35 | 1018.6 |
| 20260501233940 | 51 | 214 | 1.0 | 5.0 | 0.00 | 0.00 | 0.00 | 34 | 1018.5 |
| 20260501233437 | 52 | 52 | 2.0 | 3.0 | 0.00 | 0.00 | 0.00 | 34 | 1018.5 |
| 20260501232933 | 52 | 307 | 3.0 | 5.0 | 0.00 | 0.00 | 0.00 | 33 | 1018.5 |
| 20260501232430 | 52 | 56 | 3.0 | 3.0 | 0.00 | 0.00 | 0.00 | 34 | 1018.5 |
| 20260501231927 | 52 | 207 | 1.0 | 6.0 | 0.00 | 0.00 | 0.00 | 33 | 1018.4 |
| 20260501231426 | 53 | 333 | 4.0 | 5.0 | 0.00 | 0.00 | 0.00 | 33 | 1018.4 |
| 20260501230923 | 53 | 205 | 1.0 | 6.0 | 0.00 | 0.00 | 0.00 | 32 | 1018.6 |
| 20260501230422 | 53 | 260 | 3.0 | 3.0 | 0.00 | 0.00 | 0.00 | 33 | 1018.4 |
| 20260501225919 | 53 | 354 | 4.0 | 5.0 | 0.00 | 0.00 | 0.00 | 33 | 1018.5 |
| 20260501225417 | 53 | 333 | 6.0 | 8.0 | 0.00 | 0.00 | 0.00 | 32 | 1018.5 |
| 20260501224912 | 53 | 195 | 2.0 | 7.0 | 0.00 | 0.00 | 0.00 | 33 | 1018.7 |
| 20260501224410 | 52 | 335 | 5.0 | 6.0 | 0.00 | 0.00 | 0.00 | 32 | 1018.4 |
| 20260501223906 | 53 | 306 | 6.0 | 7.0 | 0.00 | 0.00 | 0.00 | 32 | 1018.7 |
| 20260501223402 | 53 | 294 | 4.0 | 8.0 | 0.00 | 0.00 | 0.00 | 32 | 1018.5 |
| 20260501222858 | 55 | 340 | 6.0 | 8.0 | 0.00 | 0.00 | 0.00 | 32 | 1018.6 |
| 20260501222356 | 55 | 240 | 2.0 | 6.0 | 0.00 | 0.00 | 0.00 | 32 | 1018.3 |
| 20260501221852 | 54 | 254 | 2.0 | 3.0 | 0.00 | 0.00 | 0.00 | 33 | 1018.4 |
| 20260501221349 | 54 | 312 | 4.0 | 7.0 | 0.00 | 0.00 | 0.00 | 32 | 1018.6 |
| 20260501220848 | 54 | 233 | 2.0 | 7.0 | 0.00 | 0.00 | 0.00 | 31 | 1018.5 |
| 20260501220345 | 54 | 308 | 3.0 | 6.0 | 0.00 | 0.00 | 0.00 | 33 | 1018.6 |
| 20260501215841 | 54 | 267 | 6.0 | 9.0 | 0.00 | 0.00 | 0.00 | 31 | 1018.5 |
| 20260501215337 | 53 | 352 | 6.0 | 9.0 | 0.00 | 0.00 | 0.00 | 31 | 1018.7 |
| 20260501214833 | 52 | 36 | 3.0 | 6.0 | 0.00 | 0.00 | 0.00 | 32 | 1018.6 |
| 20260501214328 | 52 | 72 | 3.0 | 5.0 | 0.00 | 0.00 | 0.00 | 34 | 1018.4 |
| 20260501213824 | 51 | 101 | 2.0 | 3.0 | 0.00 | 0.00 | 0.00 | 35 | 1018.6 |
| 20260501213321 | 51 | 108 | 2.0 | 3.0 | 0.00 | 0.00 | 0.00 | 34 | 1018.7 |
| 20260501212817 | 51 | 20 | 5.0 | 6.0 | 0.00 | 0.00 | 0.00 | 34 | 1018.7 |
| 20260501212313 | 52 | 322 | 4.0 | 6.0 | 0.00 | 0.00 | 0.00 | 34 | 1018.6 |
| 20260501211811 | 53 | 116 | 2.0 | 8.0 | 0.00 | 0.00 | 0.00 | 33 | 1018.7 |
| 20260501211308 | 53 | 207 | 1.0 | 5.0 | 0.00 | 0.00 | 0.00 | 33 | 1018.8 |
| 20260501210805 | 53 | 249 | 2.0 | 5.0 | 0.00 | 0.00 | 0.00 | 33 | 1018.5 |
| 20260501210302 | 51 | 43 | 3.0 | 6.0 | 0.00 | 0.00 | 0.00 | 35 | 1018.8 |
| 20260501205758 | 51 | 186 | 2.0 | 3.0 | 0.00 | 0.00 | 0.00 | 35 | 1018.7 |
| 20260501205255 | 51 | 34 | 4.0 | 5.0 | 0.00 | 0.00 | 0.00 | 34 | 1018.8 |
| 20260501204752 | 52 | 67 | 5.0 | 8.0 | 0.00 | 0.00 | 0.00 | 36 | 1018.8 |
| 20260501204249 | 51 | 107 | 3.0 | 3.0 | 0.00 | 0.00 | 0.00 | 36 | 1018.9 |
| 20260501203745 | 51 | 0 | 3.0 | 5.0 | 0.00 | 0.00 | 0.00 | 35 | 1018.9 |
| 20260501203243 | 51 | 47 | 4.0 | 7.0 | 0.00 | 0.00 | 0.00 | 34 | 1019.1 |
| 20260501202739 | 52 | 48 | 4.0 | 6.0 | 0.00 | 0.00 | 0.00 | 33 | 1019.1 |
| 20260501202236 | 52 | 161 | 2.0 | 3.0 | 0.00 | 0.00 | 0.00 | 34 | 1018.9 |
| 20260501201733 | 53 | 120 | 2.0 | 7.0 | 0.00 | 0.00 | 0.00 | 34 | 1019.0 |
| 20260501201230 | 52 | 20 | 5.0 | 8.0 | 0.00 | 0.00 | 0.00 | 35 | 1018.9 |
| 20260501200727 | 54 | 33 | 5.0 | 7.0 | 0.00 | 0.00 | 0.00 | 34 | 1019.1 |
| 20260501200224 | 54 | 268 | 3.0 | 13.0 | 0.00 | 0.00 | 0.00 | 34 | 1019.2 |
| 20260501195721 | 54 | 202 | 0.0 | 3.0 | 0.00 | 0.00 | 0.00 | 32 | 1019.0 |
| 20260501195217 | 52 | 245 | 5.0 | 7.0 | 0.00 | 0.00 | 0.00 | 34 | 1019.0 |
| 20260501194713 | 52 | 356 | 5.0 | 7.0 | 0.00 | 0.00 | 0.00 | 35 | 1019.1 |
| 20260501194209 | 51 | 326 | 4.0 | 6.0 | 0.00 | 0.00 | 0.00 | 34 | 1019.3 |
| 20260501193705 | 52 | 15 | 3.0 | 6.0 | 0.00 | 0.00 | 0.00 | 37 | 1019.0 |
| 20260501193204 | 51 | 67 | 3.0 | 8.0 | 0.00 | 0.00 | 0.00 | 35 | 1019.1 |
| 20260501192701 | 50 | 175 | 3.0 | 9.0 | 0.00 | 0.00 | 0.00 | 36 | 1019.4 |
| 20260501192158 | 50 | 351 | 5.0 | 9.0 | 0.00 | 0.00 | 0.00 | 35 | 1019.1 |
| 20260501191655 | 50 | 99 | 2.0 | 5.0 | 0.00 | 0.00 | 0.00 | 36 | 1019.1 |
| 20260501191153 | 52 | 316 | 6.0 | 8.0 | 0.00 | 0.00 | 0.00 | 34 | 1019.1 |
| 20260501190649 | 50 | 64 | 3.0 | 5.0 | 0.00 | 0.00 | 0.00 | 36 | 1019.3 |
| 20260501190144 | 51 | 340 | 6.0 | 9.0 | 0.00 | 0.00 | 0.00 | 34 | 1019.2 |
| 20260501185640 | 53 | 34 | 5.0 | 9.0 | 0.00 | 0.00 | 0.00 | 34 | 1019.1 |
| 20260501185136 | 50 | 65 | 3.0 | 5.0 | 0.00 | 0.00 | 0.00 | 37 | 1019.2 |
| 20260501184633 | 51 | 20 | 5.0 | 8.0 | 0.00 | 0.00 | 0.00 | 35 | 1019.0 |
| 20260501184127 | 51 | 321 | 2.0 | 5.0 | 0.00 | 0.00 | 0.00 | 36 | 1019.2 |
| 20260501183625 | 50 | 82 | 7.0 | 9.0 | 0.00 | 0.00 | 0.00 | 35 | 1019.4 |
| 20260501183121 | 51 | 352 | 3.0 | 8.0 | 0.00 | 0.00 | 0.00 | 36 | 1019.2 |
| 20260501182618 | 49 | 28 | 4.0 | 7.0 | 0.00 | 0.00 | 0.00 | 38 | 1019.3 |
| 20260501182114 | 50 | 244 | 3.0 | 7.0 | 0.00 | 0.00 | 0.00 | 38 | 1019.5 |
| 20260501181612 | 50 | 311 | 4.0 | 7.0 | 0.00 | 0.00 | 0.00 | 37 | 1019.5 |
| 20260501181108 | 51 | 103 | 4.0 | 6.0 | 0.00 | 0.00 | 0.00 | 35 | 1019.3 |
| 20260501180607 | 51 | 190 | 1.0 | 5.0 | 0.00 | 0.00 | 0.00 | 36 | 1019.3 |
| 20260501175559 | 50 | 29 | 2.0 | 3.0 | 0.00 | 0.00 | 0.00 | 36 | 1019.4 |
| 20260501175056 | 50 | 145 | 1.0 | 5.0 | 0.00 | 0.00 | 0.00 | 36 | 1019.3 |
| 20260501174553 | 51 | 307 | 4.0 | 5.0 | 0.00 | 0.00 | 0.00 | 34 | 1019.4 |
| 20260501174050 | 50 | 143 | 1.0 | 6.0 | 0.00 | 0.00 | 0.00 | 36 | 1019.7 |
| 20260501173547 | 50 | 64 | 2.0 | 7.0 | 0.00 | 0.00 | 0.00 | 35 | 1019.8 |
| 20260501173044 | 49 | 343 | 4.0 | 10.0 | 0.00 | 0.00 | 0.00 | 36 | 1019.6 |
| 20260501172539 | 51 | 156 | 3.0 | 7.0 | 0.00 | 0.00 | 0.00 | 36 | 1019.4 |
| 20260501172035 | 50 | 355 | 5.0 | 9.0 | 0.00 | 0.00 | 0.00 | 37 | 1019.5 |
| 20260501171532 | 50 | 57 | 5.0 | 6.0 | 0.00 | 0.00 | 0.00 | 37 | 1019.4 |
| 20260501171028 | 49 | 10 | 6.0 | 7.0 | 0.00 | 0.00 | 0.00 | 37 | 1019.5 |
| 20260501170525 | 49 | 17 | 3.0 | 5.0 | 0.00 | 0.00 | 0.00 | 40 | 1019.6 |
| 20260501170022 | 49 | 4 | 7.0 | 10.0 | 0.00 | 0.00 | 0.00 | 38 | 1019.6 |
| 20260501165520 | 49 | 19 | 3.0 | 7.0 | 0.00 | 0.00 | 0.00 | 39 | 1019.6 |
| 20260501165018 | 48 | 330 | 5.0 | 7.0 | 0.00 | 0.00 | 0.00 | 38 | 1019.5 |
| 20260501164515 | 48 | 339 | 3.0 | 8.0 | 0.00 | 0.00 | 0.00 | 41 | 1019.7 |
| 20260501164012 | 48 | 97 | 5.0 | 7.0 | 0.00 | 0.00 | 0.00 | 39 | 1019.6 |
| 20260501163508 | 48 | 53 | 4.0 | 5.0 | 0.00 | 0.00 | 0.00 | 40 | 1019.7 |